DB0WT-13 Weather Reports


time (UTC)temp
F
wind
direction
speed
knots
gust
knots
rain 1hr
in
rain 24hr
in
rain mn
in
humidity
%
barometer
mb
20260506174512 47 0.0 0.0 0.00 0.00 0.00 99 1015.2
20260506173012 47 0.0 0.0 0.00 0.00 0.00 99 1014.8
20260506171512 47 0.0 0.0 0.00 0.00 0.00 99 1013.8
20260506170012 48 0.0 0.0 0.00 0.00 0.00 99 1013.1
20260506164512 48 0.0 0.0 0.00 0.00 0.00 99 1012.3
20260506163012 48 0.0 0.0 0.00 0.00 0.00 99 1012.3
20260506161512 48 0.0 0.0 0.00 0.00 0.00 99 1012.2
20260506160012 48 0.0 0.0 0.00 0.00 0.00 99 1012.5
20260506154512 49 0.0 0.0 0.00 0.00 0.00 99 1012.5
20260506153012 49 0.0 0.0 0.00 0.00 0.00 99 1013.1
20260506151512 49 0.0 0.0 0.00 0.00 0.00 99 1015.0
20260506150012 49 0.0 0.0 0.00 0.00 0.00 99 1016.5
20260506144512 48 0.0 0.0 0.00 0.00 0.00 99 1015.1
20260506143012 49 0.0 0.0 0.00 0.00 0.00 99 1014.1
20260506141512 49 0.0 0.0 0.00 0.00 0.00 99 1013.7
20260506140011 48 0.0 0.0 0.00 0.00 0.00 99 1014.0
20260506134512 49 0.0 0.0 0.00 0.00 0.00 99 1013.8
20260506133012 51 0.0 0.0 0.00 0.00 0.00 99 1013.8
20260506131512 52 0.0 0.0 0.00 0.00 0.00 99 1011.7
20260506130012 54 0.0 0.0 0.00 0.00 0.00 99 1009.9
20260506124512 54 0.0 0.0 0.00 0.00 0.00 99 1009.6
20260506123012 54 0.0 0.0 0.00 0.00 0.00 99 1009.3
20260506121512 57 0.0 0.0 0.00 0.00 0.00 99 1008.0
20260506120013 58 0.0 0.0 0.00 0.00 0.00 99 1007.6
20260506114512 59 0.0 0.0 0.00 0.00 0.00 99 1008.1
20260506113012 56 0.0 0.0 0.00 0.00 0.00 99 1009.1
20260506111512 57 0.0 0.0 0.00 0.00 0.00 99 1009.1
20260506110012 56 0.0 0.0 0.00 0.00 0.00 99 1009.3
20260506104512 57 0.0 0.0 0.00 0.00 0.00 99 1009.5
20260506103012 55 0.0 0.0 0.00 0.00 0.00 99 1009.8
20260506101512 55 0.0 0.0 0.00 0.00 0.00 99 1009.7
20260506100013 54 0.0 0.0 0.00 0.00 0.00 99 1010.0
20260506094512 53 0.0 0.0 0.00 0.00 0.00 99 1010.2
20260506093012 54 0.0 0.0 0.00 0.00 0.00 99 1009.9
20260506091512 54 0.0 0.0 0.00 0.00 0.00 99 1010.3
20260506090012 53 0.0 0.0 0.00 0.00 0.00 99 1010.3
20260506084512 54 0.0 0.0 0.00 0.00 0.00 99 1009.7
20260506083012 55 0.0 0.0 0.00 0.00 0.00 99 1009.2
20260506081512 58 0.0 0.0 0.00 0.00 0.00 99 1007.8
20260506073012 65 0.0 0.0 0.00 0.00 0.00 99 1007.2
20260506071512 66 0.0 0.0 0.00 0.00 0.00 99 1007.3
20260506061511 48 0.0 0.0 0.00 0.00 0.00 99 1021.6
20260506044512 43 0.0 0.0 0.00 0.00 0.00 99 1023.0
20260506043012 43 0.0 0.0 0.00 0.00 0.00 99 1023.1
20260506041512 43 0.0 0.0 0.00 0.00 0.00 99 1023.5
20260506040011 43 0.0 0.0 0.00 0.00 0.00 99 1023.8
20260506034511 44 0.0 0.0 0.00 0.00 0.00 99 1024.0
20260506033012 44 0.0 0.0 0.00 0.00 0.00 99 1024.1
20260506031512 44 0.0 0.0 0.00 0.00 0.00 99 1024.1
20260506030012 45 0.0 0.0 0.00 0.00 0.00 99 1023.9
20260506024512 45 0.0 0.0 0.00 0.00 0.00 99 1024.0
20260506023012 45 0.0 0.0 0.00 0.00 0.00 99 1023.9
20260506021512 45 0.0 0.0 0.00 0.00 0.00 99 1023.4
20260506020012 45 0.0 0.0 0.00 0.00 0.00 99 1023.6
20260506014512 45 0.0 0.0 0.00 0.00 0.00 99 1023.3
20260506013012 44 0.0 0.0 0.00 0.00 0.00 99 1023.0
20260506011512 45 0.0 0.0 0.00 0.00 0.00 99 1023.4
20260506010012 44 0.0 0.0 0.00 0.00 0.00 99 1022.9
20260506004512 44 0.0 0.0 0.00 0.00 0.00 99 1022.9
20260506003012 44 0.0 0.0 0.00 0.00 0.00 99 1022.2
20260506001512 44 0.0 0.0 0.00 0.00 0.00 99 1021.4
20260506000012 44 0.0 0.0 0.00 0.00 0.00 99 1020.7
20260505234512 45 0.0 0.0 0.00 0.00 0.00 99 1020.6
20260505233012 46 0.0 0.0 0.00 0.00 0.00 99 1021.0
20260505231512 47 0.0 0.0 0.00 0.00 0.00 99 1021.2
20260505230012 47 0.0 0.0 0.00 0.00 0.00 99 1021.0
20260505224512 47 0.0 0.0 0.00 0.00 0.00 99 1020.9
20260505223012 46 0.0 0.0 0.00 0.00 0.00 99 1020.5
20260505221512 47 0.0 0.0 0.00 0.00 0.00 99 1020.7
20260505220012 46 0.0 0.0 0.00 0.00 0.00 99 1020.3
20260505214512 47 0.0 0.0 0.00 0.00 0.00 99 1020.1
20260505213012 47 0.0 0.0 0.00 0.00 0.00 99 1020.2
20260505211512 47 0.0 0.0 0.00 0.00 0.00 99 1020.0
20260505210012 48 0.0 0.0 0.00 0.00 0.00 99 1020.5
20260505204513 48 0.0 0.0 0.00 0.00 0.00 99 1020.1
20260505203012 48 0.0 0.0 0.00 0.00 0.00 99 1019.8
20260505201511 49 0.0 0.0 0.00 0.00 0.00 99 1019.7
20260505200011 49 0.0 0.0 0.00 0.00 0.00 99 1019.6
20260505194512 50 0.0 0.0 0.00 0.00 0.00 99 1019.5
20260505193012 50 0.0 0.0 0.00 0.00 0.00 99 1019.5
20260505191512 50 0.0 0.0 0.00 0.00 0.00 99 1019.6
20260505190012 50 0.0 0.0 0.00 0.00 0.00 99 1019.7
20260505184511 51 0.0 0.0 0.00 0.00 0.00 99 1020.3
20260505183011 51 0.0 0.0 0.00 0.00 0.00 99 1019.7
20260505181512 51 0.0 0.0 0.00 0.00 0.00 99 1018.6
20260505180012 52 0.0 0.0 0.00 0.00 0.00 99 1017.6